Location: Luxembourg
(49.6117°N, 6.1300°E)
Time: 07:18:06
(UTC+02:00)

N. Korean satellite - Pass Details

Date: 02 February 2019
Orbit: 457 x 508 km, 97.2° (Epoch: 18 April)

Event Time Altitude Azimuth Distance (km) Brightness Sun altitude
Rises 18:59:07 0° 207° (SSW) 2,604 10.8 -14.3°
Reaches altitude 10° 19:01:48 10° 228° (SW) 1,728 10.2 -14.7°
Maximum altitude 19:04:15 17° 269° (W) 1,370 10.0 -15.1°
Drops below altitude 10° 19:06:42 10° 310° (NW) 1,737 10.0 -15.5°
Sets 19:09:26 0° 332° (NNW) 2,626 10.6 -15.9°
